Location: �quirre
(50.4736°N, 2.2351°E)
Time: 23:07:53
(UTC+00:00)

SL-14 R/B - Pass Details

Date: 07 August 2020
Orbit: 517 x 555 km, 82.4° (Epoch: 23 September)

Event Time Altitude Azimuth Distance (km) Brightness Sun altitude
Rises 02:56:30 0° 340° (NNW) 2,707 7.2 -12.5°
Reaches altitude 10° 02:58:52 10° 330° (NNW) 1,802 6.1 -12.2°
Maximum altitude 03:02:17 28° 270° (W) 1,010 4.3 -11.8°
Enters shadow 03:04:23 18° 223° (SW) 1,357 4.7 -11.6°
